Vorticity
11 6 4 6 5 8 10 1 -1 3 13 26 19 17 13 9 8 9 12 12 10 7 6 4 4 5 7 10 9 7 5 3 2 2 2 3 5 8 10 9 10 10 12 13
6 15 16 13 17 14 6 4 6 -1 2 21 12 13 15 13 11 8 6 5 5 3 3 6 9 7 8 6 3 2 2 2 1 4 6 9 9 9 14 12 13 15 12 7
15 11 4 36 40 32 9 8 15 17 17 22 11 6 5 3 3 5 7 8 7 8 7 6 8 6 3 3 2 -0 -0 5 11 10 8 13 15 11 12 12 9 5 6 7
6 14 17 7 19 23 40 8 12 10 15 17 15 8 3 0 2 10 12 8 8 9 9 6 3 2 0 -1 1 9 12 7 11 16 14 11 11 10 8 6 6 7 8 9
2 12 -11 24 17 7 1 1 6 13 13 14 17 5 3 2 8 8 7 8 7 4 3 1 -1 -1 1 8 10 9 15 15 11 9 10 10 9 6 5 5 7 8 10 11
18 7 5 1 1 3 12 22 17 20 13 20 19 6 8 19 13 11 9 5 3 1 -1 1 2 9 10 11 11 11 10 11 12 12 10 5 2 5 9 9 11 11 9 7
12 -6 10 10 7 15 25 -5 11 22 13 17 20 19 10 11 4 5 4 1 0 -0 1 7 8 8 7 10 11 12 11 9 7 6 7 4 7 7 9 10 14 18 21 25
25 10 18 22 7 15 -1 2 17 25 18 14 5 4 2 1 6 5 0 -3 2 8 8 8 8 7 9 11 10 10 12 11 9 6 2 3 6 7 10 11 21 10 6 10
-3 5 3 -8 -1 7 10 28 16 11 4 -1 0 5 3 -0 0 -2 2 7 7 7 9 8 10 10 13 13 12 9 6 5 4 4 1 5 9 9 11 21 10 10 16 14
8 12 3 4 9 20 14 19 1 -3 -1 4 -0 6 9 0 2 10 10 8 9 9 9 10 11 11 12 10 7 5 4 4 3 1 4 7 4 20 24 19 16 10 8 11
5 -2 -7 -0 10 19 14 8 -0 -18 -5 -2 7 -4 -1 10 8 8 10 10 9 9 9 10 10 10 9 7 7 5 3 2 1 3 7 3 15 17 14 14 6 8 11 11
-6 -1 -4 -3 2 0 24 13 26 1 20 23 10 5 5 9 10 9 9 9 10 11 10 12 11 11 9 8 4 2 1 2 2 6 8 11 16 12 14 9 8 8 11 13
-6 2 5 -1 -8 11 24 10 18 21 24 5 10 13 9 9 11 11 12 11 10 12 12 11 9 7 6 4 3 2 2 3 7 8 13 18 12 10 6 7 9 11 11 14
18 12 -3 3 11 33 3 36 22 6 10 14 9 7 9 10 12 10 9 10 10 10 9 7 6 4 3 3 2 4 6 9 11 18 13 9 10 8 8 9 10 11 13 15
2 -3 5 3 22 14 29 12 11 13 11 7 7 7 10 8 9 9 10 9 7 6 5 4 4 4 4 6 8 10 14 16 9 10 13 11 10 11 11 13 14 14 15 15
19 9 8 18 24 18 12 15 12 9 7 4 8 10 8 8 7 8 7 7 6 6 6 6 6 8 12 15 15 10 8 13 12 10 12 15 16 16 18 17 17 17 17 17
21 1 19 25 15 20 13 10 9 4 7 11 9 8 8 10 8 7 6 5 5 7 12 14 11 9 11 15 14 12 15 19 19 19 19 19 19 19 19 18 18 18 19 20
9 4 17 22 25 13 10 7 5 8 10 9 10 9 8 5 4 6 11 14 11 9 12 13 11 13 18 20 19 17 17 19 20 20 20 19 18 18 19 19 18 18 18 18
17 22 23 11 9 8 4 6 10 10 10 9 6 4 6 11 12 9 11 11 11 13 16 20 21 21 18 15 16 19 19 18 17 17 18 19 20 18 17 16 19 18 11 14
19 14 8 8 5 3 10 13 10 9 4 4 10 12 8 9 10 11 13 15 18 17 17 16 13 14 18 20 16 15 16 16 17 17 18 19 8 -6 10 19 25 8 4 12
11 9 5 0 12 13 11 8 4 6 11 11 7 8 8 12 12 15 14 15 16 15 15 18 21 21 19 19 20 20 20 19 17 16 14 21 11 7 27 12 13 17 20 18
4 2 12 12 10 6 5 9 11 11 8 5 11 6 14 12 16 14 15 14 17 19 19 17 16 15 15 15 13 12 12 16 21 20 22 22 22 18 9 10 12 12 8 7
10 11 10 4 3 6 7 10 10 7 6 10 7 14 12 15 15 12 13 12 11 11 10 10 9 8 7 7 7 7 8 8 11 17 17 18 16 12 10 9 7 8 9 10
10 7 2 4 5 7 8 9 9 4 9 7 12 13 13 14 13 10 9 8 8 8 8 8 9 10 10 10 10 10 11 10 10 8 9 11 11 10 9 8 9 13 14 14
3 3 3 4 8 7 7 7 7 3 11 9 14 14 12 13 9 7 7 7 9 9 8 8 9 11 14 16 18 17 15 16 16 15 14 14 14 14 16 17 18 19 20 19
4 5 5 6 7 8 8 6 6 7 12 11 15 13 12 11 8 7 6 8 9 8 8 8 11 16 16 15 14 14 14 14 14 14 14 14 13 13 12 12 12 12 12 12
5 5 5 7 8 9 8 5 6 10 10 11 16 12 13 12 10 8 7 10 9 9 9 11 14 15 14 13 14 14 13 12 10 10 11 12 12 12 12 12 12 11 12 13
Height
3080 3078 3076 3074 3073 3073 3072 3072 3072 3069 3067 3065 3067 3068 3072 3076 3078 3080 3083 3085 3087 3089 3090 3091 3092 3093 3093 3092 3092 3091 3090 3089 3088 3086 3084 3081 3078 3075 3070 3067 3064 3060 3056 3052
3077 3075 3072 3069 3067 3067 3068 3068 3067 3067 3066 3064 3065 3068 3071 3074 3076 3079 3081 3083 3085 3086 3087 3087 3089 3089 3089 3088 3088 3087 3085 3082 3080 3077 3074 3071 3067 3064 3061 3057 3053 3049 3045 3039
3075 3073 3070 3067 3062 3060 3061 3063 3064 3063 3064 3064 3064 3067 3070 3072 3074 3077 3079 3081 3082 3083 3084 3084 3085 3085 3085 3084 3081 3079 3077 3074 3071 3068 3064 3061 3056 3053 3050 3046 3042 3038 3034 3029
3074 3072 3070 3062 3060 3058 3057 3060 3061 3061 3061 3062 3066 3067 3068 3070 3072 3074 3076 3078 3079 3079 3080 3080 3079 3079 3079 3077 3074 3070 3067 3064 3061 3057 3054 3050 3046 3043 3039 3035 3031 3027 3022 3017
3073 3070 3065 3061 3059 3059 3059 3060 3059 3059 3058 3059 3061 3064 3066 3068 3069 3071 3073 3074 3075 3075 3075 3075 3074 3072 3069 3067 3064 3061 3058 3054 3050 3046 3043 3040 3037 3033 3030 3024 3020 3015 3010 3004
3069 3068 3063 3060 3059 3058 3057 3056 3055 3055 3055 3056 3057 3059 3063 3065 3066 3068 3069 3070 3070 3070 3069 3068 3066 3063 3061 3058 3054 3050 3046 3043 3040 3037 3033 3030 3026 3022 3019 3014 3008 3003 2997 2993
3063 3064 3061 3058 3056 3056 3058 3058 3053 3052 3053 3054 3057 3059 3060 3061 3062 3063 3064 3064 3064 3063 3061 3059 3057 3054 3051 3047 3043 3040 3037 3034 3031 3028 3024 3021 3017 3013 3008 3002 2996 2991 2985 2981
3056 3058 3057 3054 3055 3057 3055 3051 3051 3050 3051 3052 3054 3055 3056 3057 3057 3058 3059 3059 3058 3055 3053 3051 3048 3045 3041 3037 3033 3030 3027 3024 3022 3020 3016 3012 3007 3002 2996 2990 2984 2979 2974 2970
3046 3045 3045 3046 3047 3048 3048 3049 3048 3049 3050 3051 3052 3052 3052 3053 3053 3053 3053 3051 3049 3047 3045 3042 3038 3036 3033 3029 3024 3021 3018 3016 3014 3010 3006 3002 2995 2990 2984 2978 2973 2968 2963 2959
3038 3037 3039 3039 3040 3041 3041 3043 3044 3044 3044 3045 3045 3045 3045 3046 3046 3045 3044 3042 3040 3038 3035 3032 3027 3025 3023 3021 3016 3012 3008 3006 3003 2998 2994 2990 2984 2978 2971 2967 2961 2957 2952 2948
3029 3030 3032 3031 3031 3033 3034 3034 3034 3035 3036 3036 3037 3037 3038 3038 3038 3037 3035 3033 3031 3028 3025 3023 3018 3016 3015 3012 3007 3002 2998 2994 2991 2986 2982 2977 2972 2966 2960 2957 2951 2946 2942 2937
3019 3023 3024 3025 3024 3024 3024 3025 3025 3027 3027 3028 3029 3030 3030 3030 3030 3028 3026 3023 3021 3018 3016 3014 3012 3009 3007 3003 2997 2991 2986 2983 2979 2974 2968 2963 2956 2952 2951 2944 2941 2935 2930 2926
3011 3014 3016 3016 3016 3016 3016 3017 3017 3018 3019 3020 3021 3021 3021 3021 3020 3019 3017 3014 3011 3009 3007 3004 3002 2999 2997 2991 2986 2982 2976 2972 2966 2960 2954 2948 2943 2937 2932 2932 2925 2922 2917 2914
3003 3005 3006 3007 3008 3007 3008 3008 3008 3010 3011 3012 3012 3013 3013 3012 3010 3009 3007 3004 3002 3000 2998 2995 2991 2988 2986 2979 2974 2969 2963 2958 2952 2946 2940 2935 2930 2924 2919 2914 2910 2907 2904 2899
2994 2996 2997 2996 2998 2999 2999 3000 3002 3003 3003 3004 3005 3005 3004 3004 3002 3000 2998 2995 2993 2991 2989 2985 2980 2977 2971 2966 2960 2955 2949 2943 2937 2932 2926 2921 2916 2912 2907 2901 2896 2892 2889 2886
2984 2985 2986 2986 2988 2990 2992 2993 2995 2997 2998 2998 2998 2997 2996 2995 2994 2992 2990 2987 2983 2981 2978 2973 2968 2964 2958 2952 2945 2939 2934 2929 2922 2916 2911 2906 2901 2896 2891 2886 2882 2878 2875 2873
2972 2975 2976 2978 2980 2983 2985 2988 2990 2991 2991 2991 2991 2990 2988 2986 2985 2983 2981 2978 2974 2971 2966 2960 2954 2949 2944 2938 2931 2925 2919 2914 2908 2902 2896 2891 2886 2882 2877 2873 2869 2866 2863 2861
2964 2966 2969 2971 2973 2977 2981 2983 2985 2985 2985 2984 2983 2983 2981 2979 2977 2975 2972 2968 2964 2959 2954 2947 2941 2935 2930 2924 2917 2911 2905 2899 2894 2888 2883 2878 2873 2870 2866 2862 2859 2855 2853 2851
2955 2958 2962 2966 2969 2973 2976 2977 2979 2979 2979 2978 2977 2975 2974 2971 2968 2965 2961 2957 2951 2945 2941 2935 2929 2923 2917 2912 2905 2899 2893 2887 2882 2877 2872 2867 2863 2860 2856 2853 2850 2847 2845 2842
2947 2951 2956 2961 2965 2968 2970 2971 2973 2973 2972 2971 2969 2968 2966 2963 2959 2955 2951 2946 2939 2933 2928 2922 2917 2911 2906 2901 2895 2888 2882 2876 2871 2867 2862 2858 2855 2852 2849 2845 2842 2840 2837 2834
2943 2948 2954 2958 2960 2962 2964 2966 2967 2966 2965 2963 2962 2960 2957 2954 2950 2945 2940 2936 2930 2924 2919 2913 2908 2902 2897 2892 2886 2880 2874 2868 2863 2859 2854 2850 2847 2845 2841 2839 2835 2832 2829 2826
2942 2946 2951 2954 2956 2958 2959 2961 2961 2960 2959 2956 2954 2951 2948 2944 2940 2935 2931 2926 2921 2916 2911 2906 2901 2896 2890 2885 2880 2874 2869 2863 2857 2852 2847 2843 2840 2837 2835 2832 2830 2827 2823 2820
2940 2944 2947 2950 2952 2953 2954 2955 2955 2954 2952 2950 2947 2943 2939 2936 2932 2927 2924 2920 2915 2911 2905 2900 2895 2890 2885 2880 2875 2869 2864 2858 2853 2848 2843 2838 2835 2832 2829 2827 2823 2820 2816 2813
2939 2942 2945 2947 2948 2949 2950 2950 2949 2948 2945 2942 2939 2935 2932 2928 2926 2921 2917 2913 2909 2905 2899 2894 2889 2884 2879 2873 2868 2863 2858 2853 2848 2843 2839 2834 2830 2827 2823 2820 2816 2812 2809 2805
2937 2940 2942 2944 2945 2945 2945 2944 2943 2941 2939 2935 2932 2928 2925 2921 2918 2915 2912 2908 2903 2898 2893 2889 2883 2877 2872 2866 2861 2856 2851 2847 2842 2837 2833 2828 2824 2820 2817 2813 2809 2805 2801 2798
2935 2937 2939 2940 2940 2940 2940 2939 2938 2935 2932 2929 2925 2921 2918 2915 2911 2908 2905 2901 2897 2892 2886 2881 2876 2871 2865 2859 2854 2850 2845 2840 2836 2832 2827 2823 2818 2814 2810 2807 2803 2799 2795 2792
2933 2934 2935 2935 2935 2935 2934 2933 2931 2928 2924 2921 2918 2914 2911 2909 2905 2902 2898 2894 2890 2885 2880 2875 2869 2864 2858 2853 2849 2844 2840 2835 2831 2826 2822 2817 2813 2809 2805 2801 2797 2793 2789 2786